CGYNG CYXU-ZZZZ

Flight info

Callsign CGYNG
Flight time N/A
Altitude 2000
Route VFR NORTHEAST
Aircraft BE36

Departure

Time 2026-04-20 23:26
Airport London International Airport (CYXU)

Arrival

Time N/A
Airport ZZZZ
Time Latitude Longitude Altitude Speed Heading
2026-04-20 23:26 43.04366 -81.15442 1522 ft 146 kts 359°
2026-04-20 23:26 43.05330 -81.14847 1936 ft 162 kts 41°
2026-04-20 23:26 43.06048 -81.13620 2361 ft 168 kts 51°
2026-04-20 23:26 43.06739 -81.12310 2783 ft 171 kts 51°
2026-04-20 23:27 43.07443 -81.10994 3204 ft 173 kts 49°
2026-04-20 23:27 43.08160 -81.09654 3629 ft 174 kts 49°
2026-04-20 23:27 43.08890 -81.08290 3867 ft 186 kts 50°
2026-04-20 23:27 43.09684 -81.06805 3878 ft 199 kts 50°
2026-04-20 23:28 43.10510 -81.05254 3877 ft 205 kts 50°
2026-04-20 23:28 43.11353 -81.03674 3877 ft 207 kts 50°
2026-04-20 23:28 43.12204 -81.02076 3875 ft 208 kts 50°
2026-04-20 23:28 43.13055 -81.00478 3875 ft 208 kts 50°
2026-04-20 23:29 43.13907 -80.98882 3877 ft 208 kts 50°
2026-04-20 23:29 43.14763 -80.97279 3875 ft 208 kts 50°
2026-04-20 23:29 43.15614 -80.95679 3875 ft 208 kts 50°
2026-04-20 23:29 43.16467 -80.94075 3875 ft 208 kts 50°
2026-04-20 23:30 43.17320 -80.92471 3875 ft 209 kts 50°
2026-04-20 23:30 43.18179 -80.90856 3865 ft 209 kts 50°
2026-04-20 23:30 43.19045 -80.89229 3751 ft 213 kts 50°
2026-04-20 23:30 43.19920 -80.87582 3626 ft 215 kts 50°
2026-04-20 23:31 43.20797 -80.85927 3508 ft 214 kts 50°
2026-04-20 23:31 43.21667 -80.84285 3466 ft 210 kts 50°
2026-04-20 23:31 43.22522 -80.82673 3464 ft 209 kts 50°
2026-04-20 23:31 43.23375 -80.81064 3462 ft 208 kts 50°
2026-04-20 23:32 43.24226 -80.79455 3461 ft 208 kts 50°
2026-04-20 23:32 43.25075 -80.77855 3460 ft 207 kts 50°
2026-04-20 23:32 43.25924 -80.76254 3459 ft 208 kts 50°
2026-04-20 23:32 43.26770 -80.74650 3459 ft 207 kts 50°
2026-04-20 23:33 43.27330 -80.73589 3460 ft 207 kts 50°
2026-04-20 23:33 43.28178 -80.71986 3337 ft 212 kts 50°
2026-04-20 23:33 43.29057 -80.70326 3114 ft 216 kts 50°
2026-04-20 23:33 43.29907 -80.68702 2884 ft 200 kts 50°
2026-04-20 23:34 43.30707 -80.67189 2649 ft 192 kts 50°
2026-04-20 23:34 43.31490 -80.65712 2415 ft 190 kts 51°
2026-04-20 23:34 43.32105 -80.64111 2173 ft 190 kts 66°
2026-04-20 23:34 43.32576 -80.62420 1991 ft 187 kts 67°